STARLINK-32399, 61627

Orbit data source: Space-Track

STARLINK-32399, 61627 is a payload satellite owned by SpaceX/Seattle (US) in LEO that was launched on Wed, 23 Oct 2024 UTC via an FALCON 9 launch vehicle from the Air Force Eastern Test Range (AFETR). Payload-class satellites include a variety of spacecraft equipped with specific instruments for various scientific and technological missions. These include communications satellites like Starlink; space stations such as the ISS; scientific satellites like the Hubble; Earth observation satellites from companies like Planet Labs, Umbra, and HawkEye 360; GPS; miniature CubeSats for education and research; and military/defense satellites.

Loading next visibility...
Identifier
61627, 2024-191G
Orbit
LEO
Last TLE update
13 hours ago
Origin
Manufacturer
SpaceX/Seattle
Mission
Operational Commercial Communications
Bus & Motor
STARLINK V2M, Unknown motor
Mass
730 kg wet, ~700 kg dry
Launch date (UTC)
2024-10-23 (8 months ago)
Launch vehicle
FALCON 9
Launch site
Air Force Eastern Test Range (AFETR)
Object type
Payload
Rocket body
Debris
Shape & HBR
Box + 2 Pan, 29 m
Radar Cross Section
36.964 m², Large (>1 m²)

Expand to show TLE details & history

TLE from 13 hours ago
0 STARLINK-32399
1 61627U 24191G   25188.76134423 -.00000388  00000-0 -45679-5 0  9990
2 61627  42.9975  90.2906 0001308 227.7129 132.3612 15.27572401 40161
Epoch: 2025-07-07T18:16Z
TLE epoch observation values (Epoch: 2025-07-07T18:16:20.141Z)
Latitude
-0°
Longitude
-109.75937°
Altitude
483.452 km
Speed
7.625 km/s
True Right ascension
06h 01m 09s
True Declination
0° 00' 00"
Sunlit
Object was in daylight at epoch
Visualization orbit readout
Latitude
42.83995°
Longitude
-14.31066°
Altitude
486.788 km
Speed
7.627 km/s
Apparent Right ascension
09h 54m 09s
Apparent Declination
4° 11' 11"
Sunlit
Object is in daylight
Visualization observer readout
Local Sidereal Time
19:20:15
Azimuth
311.914° NW
Elevation
-33.506°
Doppler factor
1
Orbital elements
Apogee altitude
485.915 km
Perigee altitude
484.12 km
Semi-major axis
6,863.154 km
Eccentricity
0.00013
Inclination
42.9975°
RAAN
90.2906°
Arg. of periapsis
227.7129°
True anomaly
Unknown
Mean anomaly
132.3612°
Eccentric anomaly
Unknown
Mean motion
3.81731 °/min
Orbital period
94.31 mins
BSTAR
-0.0000045679
Loading maneuver chart data...
Loading SW <> Apogee altitude chart data...
Loading historical data...
Loading historical data...
Loading historical data...
Loading historical data...
Loading historical data...
Loading historical data...
Loading historical data...

STARLINK-32399 Visibility forecast

Observer location: undefined°, undefined°

Span
Click to sort rows by Start time (UTC) header in descending order
Start Az.
Max El. time (UTC)
Max El. Az.
Max El.
End time (UTC)
End Az.
5 mins2025-07-08 21:11:44.478Z233.78° WSW2025-07-08 21:13:44.478Z181.595° SSW41.738°2025-07-08 21:16:44.478Z77.38° E
5 mins2025-07-08 22:50:44.478Z282.511° WNW2025-07-08 22:52:44.478Z334.896° NNW38.531°2025-07-08 22:55:44.478Z68.731° E
6 mins2025-07-09 00:29:44.478Z293.093° NW2025-07-09 00:31:44.478Z328.249° NNW40.088°2025-07-09 00:35:44.478Z94.638° ESE
5 mins2025-07-09 02:08:44.478Z270.344° WNW2025-07-09 02:10:44.478Z224.305° SW31.964°2025-07-09 02:13:44.478Z144.399° SSE
|